Wetbulb
58.54 59.19 59.33 60.05 59.98 59.82 61.10 61.18 61.36 61.28 61.55 61.68 61.88 61.94 61.87 62.07 61.42 55.30 50.70 54.62 58.20 64.47 68.86 58.64 56.87 58.32 59.39 55.62 58.50 59.24 50.63 49.05 51.57 52.85 53.83 55.87 52.00 53.20 54.59 54.04 54.50 56.97 58.09 60.00 62.49
58.43 58.50 59.10 59.53 59.79 59.57 60.68 61.23 61.08 61.21 61.27 61.14 61.33 61.44 61.43 61.61 56.23 51.69 58.31 62.62 64.43 65.91 60.88 54.88 53.03 54.42 53.24 54.16 55.80 53.51 49.02 50.49 55.96 57.13 54.54 55.26 52.91 52.07 51.76 52.06 53.01 56.88 59.13 62.27 62.33
58.34 58.29 58.77 59.26 59.20 59.53 60.11 60.60 60.56 60.69 60.38 60.33 60.20 60.31 60.94 60.25 50.33 49.60 66.65 65.39 66.54 68.42 61.09 54.77 54.69 54.51 51.68 54.21 54.14 54.05 50.12 54.75 56.68 57.59 58.85 55.24 52.28 52.73 50.27 48.24 52.88 56.99 58.57 61.34 61.12
58.33 58.02 58.67 58.95 58.97 59.50 59.50 59.85 60.11 59.96 59.89 59.97 59.75 59.79 60.41 56.14 36.84 52.09 68.25 67.43 64.76 60.14 58.94 53.40 51.82 49.89 50.11 50.13 54.30 52.33 56.19 57.41 57.63 56.94 56.01 54.94 55.25 50.18 50.26 50.42 54.10 60.10 61.35 61.46 61.04
58.10 58.25 58.10 58.92 58.84 59.14 59.32 59.25 59.44 59.79 60.05 60.04 59.94 59.67 56.52 47.99 47.58 55.57 61.90 60.43 57.01 59.89 56.15 51.36 49.92 50.52 49.32 51.27 53.18 52.31 55.02 57.46 57.31 55.65 54.40 54.95 52.52 51.61 51.47 52.60 54.34 60.19 61.82 61.46 61.71
57.87 58.06 58.03 58.43 58.63 58.60 58.97 59.04 59.26 59.31 59.30 59.55 59.77 59.37 52.65 43.09 54.38 56.25 56.38 55.64 55.61 54.72 55.86 51.48 51.04 53.33 52.32 52.79 51.98 54.77 55.57 56.39 54.62 54.26 55.03 52.05 53.27 54.44 52.17 52.96 54.45 59.01 59.21 59.58 60.46
57.71 58.04 58.10 58.07 58.16 58.02 57.89 57.91 58.18 58.36 58.59 59.14 59.26 56.49 50.41 46.97 54.80 54.82 55.12 53.45 54.71 54.23 51.95 54.77 52.68 51.01 53.43 52.64 55.73 53.30 50.71 50.58 51.54 52.67 52.25 54.76 49.57 49.85 51.55 52.02 53.37 54.42 55.22 57.26 58.47
57.03 57.62 57.57 57.53 57.78 57.92 58.15 58.16 58.62 58.64 58.68 59.20 59.11 54.72 45.81 54.82 54.62 54.78 55.48 54.12 55.63 55.62 54.45 55.47 54.42 53.52 52.36 53.90 52.06 49.66 48.56 43.75 49.68 50.76 50.86 53.14 46.11 52.25 55.22 52.18 49.98 50.95 52.20 54.24 55.79
56.76 56.96 57.22 57.09 57.30 57.58 57.80 58.34 58.63 58.71 59.10 59.42 55.22 50.89 44.64 57.46 52.42 55.89 55.39 52.36 53.56 53.45 52.83 54.93 55.94 51.68 51.81 46.99 45.20 46.59 40.75 43.02 45.38 51.19 50.87 50.28 46.56 51.23 55.03 53.28 50.20 48.72 48.81 51.74 53.73
56.10 56.51 56.92 56.86 57.06 57.32 58.28 58.46 58.06 57.33 57.10 57.42 55.56 47.16 48.86 49.40 52.94 53.70 53.13 54.39 51.06 50.57 50.23 49.32 49.31 46.24 48.61 44.49 39.87 40.08 41.98 43.98 42.66 48.56 49.44 47.06 46.83 51.76 54.77 55.77 54.62 52.51 49.71 50.14 53.75
55.86 57.09 57.04 56.58 56.83 57.29 55.74 51.13 47.64 46.51 50.43 46.55 47.63 47.48 49.27 52.37 55.00 51.49 53.03 51.67 50.11 47.32 40.81 47.20 42.98 41.45 45.93 49.47 47.64 46.29 44.77 44.09 46.24 51.24 48.72 46.10 48.22 51.05 53.26 52.41 51.86 50.86 47.29 47.09 50.85
55.62 56.14 56.52 56.67 57.14 57.04 53.77 49.42 49.74 50.06 43.90 50.74 50.37 50.13 52.02 52.72 47.89 51.19 51.80 45.47 45.03 40.80 44.41 44.87 40.88 47.31 51.31 51.66 49.38 47.56 44.24 42.99 44.47 51.74 48.36 48.35 48.55 51.79 52.28 51.04 51.17 48.65 47.29 45.73 46.01
55.44 55.73 56.29 56.39 56.78 53.45 51.32 51.37 54.84 51.97 43.34 47.51 51.69 50.36 51.19 52.43 48.18 48.14 50.29 46.50 43.89 41.96 43.99 41.39 45.36 50.67 49.75 49.38 47.82 46.93 44.60 43.30 43.03 45.98 45.27 43.96 41.97 44.30 48.00 47.44 47.38 47.76 46.87 46.76 45.98
56.07 56.21 56.27 56.93 51.63 50.71 50.98 55.37 54.14 52.59 38.49 43.30 47.54 49.76 51.21 52.74 47.09 52.85 53.10 49.72 46.56 42.87 44.51 44.02 48.41 48.80 47.12 47.18 48.60 44.39 49.07 48.18 45.91 42.52 38.92 43.81 34.80 36.74 41.01 42.06 44.11 43.68 43.47 44.35 44.57
56.36 56.34 56.48 56.21 47.67 49.63 52.48 53.61 53.44 50.09 28.48 46.42 47.60 53.65 50.27 48.50 48.95 48.69 54.93 50.55 45.02 45.10 44.73 42.82 45.72 45.74 45.70 47.36 49.34 46.32 48.87 47.71 46.22 41.04 36.96 37.02 33.51 35.53 38.65 38.04 40.17 40.47 41.77 42.30 43.56
56.67 56.97 56.34 52.89 50.81 51.79 52.92 52.04 50.85 37.97 30.63 43.77 48.35 46.79 46.53 48.01 48.02 49.65 50.49 51.34 50.31 46.73 46.47 45.03 49.69 48.31 45.99 47.98 48.91 48.54 43.88 42.64 40.98 37.16 31.46 36.29 35.30 33.34 35.89 37.74 38.48 39.50 41.29 42.57 43.55
56.52 56.96 55.80 54.38 45.92 52.50 51.92 47.90 37.82 31.68 44.19 41.25 43.42 46.49 44.35 43.61 45.22 45.44 44.93 42.44 41.19 38.41 37.45 43.24 44.71 47.16 49.33 43.71 46.34 44.62 40.95 32.38 30.25 28.65 29.11 35.40 33.60 36.16 36.44 38.96 40.48 40.81 40.03 41.45 40.75
56.36 56.58 54.43 54.82 53.11 52.60 48.78 42.12 30.54 39.69 39.41 45.73 45.15 45.31 40.59 44.26 43.91 44.05 41.49 39.96 44.45 43.41 39.69 37.66 34.67 42.97 47.77 44.22 41.91 41.86 41.81 32.55 27.20 26.33 30.17 35.67 30.69 34.21 38.09 40.45 41.41 41.84 41.50 41.37 41.36
55.51 49.39 49.96 51.90 54.20 51.54 44.55 34.73 36.38 38.13 44.29 43.77 43.50 39.62 38.93 43.01 43.04 41.66 39.35 40.26 40.44 43.79 39.84 38.99 37.11 43.94 45.73 46.92 44.23 39.72 37.18 39.72 33.21 30.83 28.61 31.23 31.98 36.44 38.86 39.03 39.54 39.86 40.60 40.29 40.19
47.98 46.16 46.98 53.56 53.43 47.68 40.91 38.51 39.29 43.97 45.22 45.10 38.11 41.74 37.99 39.97 40.57 39.66 39.43 41.61 41.62 43.03 41.33 38.42 33.31 40.74 43.12 44.61 45.42 40.99 43.27 34.72 32.70 26.41 23.87 27.99 28.01 30.97 35.08 36.69 38.38 38.47 38.61 39.28 39.60
45.96 40.66 47.89 53.03 49.44 43.39 36.31 37.82 42.51 46.45 45.51 43.50 41.11 41.25 40.74 39.76 39.20 39.24 40.14 41.18 42.20 42.96 41.41 38.98 36.97 35.88 39.69 38.50 39.56 39.36 38.13 37.78 36.41 31.67 26.61 24.22 28.75 34.80 37.09 38.65 37.92 38.18 39.14 39.62 39.71
42.75 34.85 47.83 49.02 38.47 38.10 37.59 42.54 45.72 44.15 45.17 43.87 43.06 44.05 41.87 41.39 38.57 39.89 41.63 43.10 43.24 42.40 39.02 39.53 37.00 31.64 34.96 38.29 39.90 39.01 37.14 35.92 30.84 29.56 28.40 25.91 28.15 36.60 38.10 40.39 40.46 38.74 40.05 40.03 40.57
41.82 39.74 45.92 46.29 33.23 33.62 38.85 42.58 43.51 42.46 42.67 42.69 41.14 43.52 42.41 40.20 39.25 40.78 41.64 44.20 43.99 43.03 39.96 38.94 35.31 29.42 31.92 34.49 36.09 34.66 37.22 36.95 34.38 31.49 28.26 24.82 28.92 37.35 36.56 37.97 39.21 38.38 38.81 39.65 40.19
40.34 36.12 39.86 40.35 38.10 36.68 35.66 38.32 39.90 44.08 42.82 43.05 40.90 41.19 39.82 38.54 41.66 39.40 40.58 42.73 43.01 43.78 45.74 42.62 36.85 32.69 29.14 31.61 33.57 30.84 34.72 36.09 33.59 28.01 28.31 29.22 30.66 33.77 35.70 37.26 37.83 38.28 38.99 39.58 40.35
39.62 35.58 38.30 33.46 36.45 36.54 36.26 38.42 38.52 38.65 42.17 41.33 38.78 39.55 38.36 35.05 37.24 38.54 40.23 39.93 41.41 45.47 40.14 38.39 33.59 32.95 34.45 35.71 35.32 34.45 35.27 35.51 33.01 32.01 29.97 31.39 32.61 35.61 36.42 37.42 39.02 39.75 38.92 38.67 39.23
38.64 39.22 39.60 36.90 37.78 36.57 37.16 35.42 38.87 40.74 40.09 39.94 37.32 39.58 37.87 35.43 37.32 35.01 37.34 37.06 37.39 38.04 36.06 36.40 33.40 33.21 31.92 35.96 35.61 34.02 35.81 35.75 35.10 34.93 33.11 33.78 33.55 36.39 37.04 36.46 36.97 37.77 38.80 38.18 37.97
43.31 43.95 40.79 38.07 35.30 34.26 35.40 37.49 40.53 40.33 41.86 40.59 38.85 37.12 36.86 38.65 38.64 38.72 39.21 38.58 38.10 36.35 35.24 33.97 33.30 31.90 28.23 35.08 35.32 32.03 35.27 35.74 35.64 35.95 35.92 31.54 34.82 36.28 35.58 37.48 37.13 37.31 38.21 37.62 36.97
MSLP
1020.83 1020.46 1020.40 1020.18 1020.01 1019.73 1019.45 1019.16 1018.83 1018.61 1018.27 1018.00 1017.58 1017.28 1016.94 1016.40 1015.77 1015.21 1014.42 1012.40 1011.98 1011.33 1011.11 1010.86 1010.52 1010.25 1010.17 1010.22 1010.10 1010.30 1011.35 1011.64 1010.94 1010.27 1009.14 1008.37 1008.46 1008.73 1008.78 1009.39 1009.76 1010.00 1010.48 1010.39 1011.49
1020.91 1020.61 1020.40 1020.20 1019.95 1019.76 1019.36 1018.97 1018.81 1018.58 1018.31 1017.93 1017.75 1017.36 1016.87 1016.23 1015.49 1014.15 1011.86 1011.70 1011.60 1011.11 1011.28 1011.08 1010.88 1010.64 1010.45 1010.15 1010.12 1010.34 1011.08 1010.98 1009.86 1009.15 1008.52 1007.99 1008.02 1008.35 1009.05 1009.65 1010.10 1010.33 1010.26 1010.43 1011.43
1020.98 1020.80 1020.55 1020.37 1020.12 1019.92 1019.35 1019.12 1018.89 1018.65 1018.40 1018.00 1017.82 1017.48 1016.86 1016.26 1015.34 1012.44 1010.81 1011.17 1011.00 1010.80 1011.11 1010.91 1010.90 1010.95 1010.61 1010.17 1010.00 1010.03 1010.33 1010.42 1009.39 1008.74 1008.26 1007.98 1008.07 1008.03 1008.88 1009.77 1009.84 1010.06 1010.47 1010.77 1011.44
1021.13 1020.86 1020.72 1020.43 1020.19 1019.78 1019.32 1019.07 1018.88 1018.58 1018.28 1018.05 1017.83 1017.55 1017.01 1016.43 1014.75 1011.21 1010.49 1010.51 1010.66 1010.42 1010.47 1010.76 1011.00 1011.00 1010.44 1010.10 1009.58 1009.79 1009.68 1009.78 1009.35 1008.92 1008.45 1008.20 1008.21 1008.23 1008.76 1008.81 1008.87 1009.49 1009.74 1010.76 1011.46
1021.12 1020.96 1020.72 1020.38 1019.97 1019.57 1019.27 1019.03 1018.72 1018.33 1018.16 1017.94 1017.78 1017.51 1017.16 1016.56 1014.02 1011.40 1011.31 1011.15 1010.88 1010.45 1010.53 1010.65 1010.80 1010.51 1010.08 1009.64 1009.49 1009.52 1009.57 1009.62 1009.41 1009.15 1009.09 1008.38 1008.52 1008.74 1008.99 1008.78 1009.03 1009.94 1010.51 1010.89 1011.39
1020.94 1020.69 1020.35 1020.03 1019.76 1019.42 1019.08 1018.78 1018.47 1018.15 1017.91 1017.75 1017.64 1017.45 1017.17 1015.96 1012.12 1011.55 1011.55 1011.30 1011.08 1010.99 1010.69 1010.58 1010.32 1010.03 1009.84 1009.31 1009.21 1008.98 1009.30 1009.40 1009.44 1009.54 1009.60 1009.37 1009.37 1009.37 1009.44 1009.26 1009.79 1010.18 1010.63 1010.89 1011.34
1020.63 1020.40 1020.16 1019.98 1019.74 1019.39 1019.00 1018.63 1018.27 1017.99 1017.74 1017.64 1017.53 1017.28 1016.63 1014.03 1011.68 1011.34 1011.44 1011.21 1010.94 1011.15 1011.01 1010.38 1009.99 1010.30 1009.58 1009.16 1008.76 1008.94 1009.73 1009.83 1009.72 1009.83 1010.24 1010.40 1010.40 1010.66 1010.22 1010.01 1010.34 1010.96 1011.26 1011.45 1011.60
1020.47 1020.32 1020.20 1020.02 1019.76 1019.37 1018.82 1018.27 1017.82 1017.56 1017.43 1017.35 1017.28 1017.20 1015.46 1012.11 1011.52 1011.19 1010.62 1010.51 1010.21 1010.24 1010.49 1009.98 1010.11 1010.18 1009.85 1009.18 1008.89 1009.33 1009.72 1010.21 1010.14 1010.09 1010.53 1010.63 1011.45 1011.18 1010.68 1010.78 1011.13 1011.48 1011.59 1011.58 1011.65
1020.34 1020.08 1020.01 1019.82 1019.51 1019.04 1018.37 1017.55 1016.77 1016.58 1016.57 1016.67 1017.08 1017.00 1014.52 1011.71 1011.20 1009.69 1010.02 1010.01 1009.68 1009.55 1009.48 1009.42 1009.83 1010.03 1009.70 1009.71 1009.62 1009.68 1010.07 1010.36 1010.54 1010.37 1010.77 1011.15 1011.69 1011.10 1010.96 1011.04 1011.23 1011.47 1011.98 1012.00 1011.79
1020.25 1020.01 1019.64 1019.45 1019.15 1018.71 1017.92 1016.51 1015.55 1015.89 1015.94 1016.12 1016.21 1016.59 1013.37 1011.35 1010.15 1009.41 1008.94 1009.06 1009.47 1009.39 1009.11 1009.05 1009.38 1009.59 1009.58 1009.60 1009.19 1009.93 1010.20 1010.52 1010.58 1010.89 1011.05 1011.54 1011.47 1011.29 1011.24 1011.24 1010.89 1011.23 1011.56 1011.83 1011.86
1020.17 1019.78 1019.38 1018.96 1018.76 1018.51 1017.94 1016.94 1016.43 1016.23 1015.93 1015.38 1014.41 1013.98 1012.31 1010.92 1009.84 1008.91 1008.73 1009.07 1009.40 1009.50 1009.42 1009.03 1009.46 1009.32 1009.28 1009.19 1009.45 1009.76 1010.20 1010.70 1010.67 1010.78 1011.11 1011.43 1011.47 1011.22 1011.10 1011.23 1011.03 1011.09 1011.42 1011.60 1011.85
1019.94 1019.66 1019.31 1018.75 1018.23 1018.06 1018.54 1018.29 1018.03 1017.98 1015.98 1013.86 1013.13 1012.81 1011.54 1011.21 1010.70 1008.57 1008.48 1009.08 1009.48 1009.61 1009.47 1009.56 1009.32 1009.26 1009.19 1009.15 1009.22 1009.74 1010.30 1010.88 1011.12 1011.07 1011.28 1011.79 1011.66 1011.03 1010.79 1010.73 1010.81 1010.99 1011.54 1011.96 1011.99
1019.75 1019.50 1019.17 1018.56 1018.02 1017.77 1018.51 1018.10 1017.43 1017.36 1016.70 1013.27 1011.85 1011.29 1010.38 1010.48 1010.22 1008.93 1008.83 1008.88 1009.21 1009.52 1009.57 1009.68 1009.14 1008.94 1009.30 1009.44 1009.71 1009.90 1010.41 1011.05 1011.26 1011.64 1011.81 1012.05 1012.34 1011.47 1010.91 1010.90 1011.00 1011.24 1011.62 1011.92 1012.15
1019.98 1019.54 1018.93 1018.48 1018.30 1018.23 1017.81 1017.37 1017.29 1017.00 1016.48 1012.89 1011.08 1009.82 1009.51 1009.77 1009.60 1008.31 1008.46 1009.25 1009.57 1009.80 1010.02 1009.92 1009.38 1009.35 1009.56 1009.70 1009.80 1009.99 1010.07 1010.88 1011.64 1012.04 1012.50 1012.26 1012.62 1011.76 1011.42 1011.51 1011.84 1012.05 1012.20 1012.27 1012.43
1019.50 1019.36 1019.08 1018.62 1018.31 1017.91 1017.13 1016.95 1016.90 1017.03 1015.58 1012.10 1010.47 1009.16 1009.35 1009.89 1009.42 1008.48 1008.22 1008.63 1009.66 1010.05 1010.14 1010.15 1009.85 1009.77 1009.68 1009.33 1009.86 1009.84 1009.94 1010.82 1011.89 1012.53 1012.84 1013.07 1013.36 1012.10 1012.26 1012.62 1012.66 1012.67 1012.73 1012.79 1012.60
1019.44 1018.97 1018.90 1018.86 1018.71 1017.32 1016.78 1016.40 1016.80 1016.79 1014.49 1012.25 1010.91 1010.33 1010.20 1010.01 1009.33 1008.79 1008.55 1008.88 1009.78 1009.89 1009.90 1010.15 1009.92 1009.86 1009.53 1009.23 1009.58 1010.02 1010.75 1011.96 1012.73 1013.18 1013.59 1012.93 1013.25 1012.77 1012.80 1012.47 1013.06 1013.14 1013.11 1013.11 1012.92
1019.47 1019.21 1018.87 1018.40 1017.90 1017.15 1016.73 1016.68 1017.15 1015.83 1013.93 1012.95 1011.85 1011.27 1011.18 1010.75 1009.79 1009.27 1009.08 1009.67 1010.17 1010.66 1010.66 1010.39 1010.32 1010.10 1009.95 1009.83 1009.98 1010.54 1011.12 1013.11 1014.10 1014.13 1013.59 1013.02 1013.57 1012.40 1012.23 1012.52 1013.03 1013.45 1013.74 1013.80 1013.87
1019.35 1019.01 1018.41 1017.65 1017.32 1017.19 1017.01 1017.16 1017.01 1015.04 1013.80 1013.07 1012.81 1012.03 1011.96 1011.41 1010.47 1009.79 1009.72 1010.38 1010.51 1010.85 1011.16 1010.99 1011.62 1010.31 1009.78 1009.81 1009.83 1010.70 1010.96 1011.98 1012.66 1013.63 1013.42 1013.19 1013.41 1012.73 1012.84 1013.04 1013.47 1013.95 1014.36 1014.70 1014.81
1019.08 1018.88 1018.30 1016.78 1016.82 1017.43 1017.17 1017.49 1016.41 1014.61 1013.56 1013.31 1012.95 1012.97 1012.59 1012.03 1011.63 1010.70 1010.35 1010.64 1010.87 1010.85 1011.49 1011.36 1010.79 1009.97 1009.78 1009.49 1009.67 1010.19 1010.56 1010.71 1011.74 1012.84 1013.37 1013.32 1013.42 1013.34 1013.63 1014.00 1014.33 1014.76 1015.12 1015.53 1015.81
1019.52 1019.16 1017.68 1016.23 1016.79 1017.28 1017.17 1017.19 1015.84 1014.23 1013.61 1013.32 1013.41 1013.43 1013.31 1012.39 1011.94 1011.16 1010.82 1011.03 1010.96 1010.90 1010.68 1010.83 1010.38 1009.93 1009.66 1009.47 1009.52 1009.52 1009.95 1010.74 1011.76 1013.08 1013.87 1013.74 1013.78 1013.31 1013.96 1014.44 1014.90 1015.34 1015.71 1016.10 1016.41
1019.52 1019.16 1016.68 1016.27 1016.98 1017.48 1017.37 1016.64 1015.21 1013.82 1013.39 1013.24 1012.99 1013.20 1013.06 1012.77 1012.18 1011.55 1011.40 1011.52 1011.17 1010.51 1010.77 1010.79 1010.82 1010.57 1009.92 1009.78 1009.91 1009.92 1010.08 1010.82 1011.64 1012.93 1013.58 1014.23 1013.46 1012.45 1013.09 1013.85 1014.65 1015.25 1015.71 1016.17 1016.61
1019.60 1019.09 1017.13 1016.81 1017.57 1017.79 1017.49 1015.88 1014.76 1013.49 1013.03 1012.77 1012.59 1012.55 1012.55 1012.37 1012.08 1011.73 1011.37 1011.43 1011.42 1011.44 1011.19 1010.97 1011.09 1010.98 1010.46 1010.11 1009.97 1009.95 1010.11 1010.77 1012.19 1013.16 1013.72 1013.95 1013.14 1012.41 1012.68 1013.35 1014.29 1015.13 1015.66 1016.19 1016.51
1019.87 1018.94 1017.47 1017.46 1017.83 1018.04 1017.02 1015.86 1014.71 1013.61 1012.90 1012.50 1012.28 1012.07 1011.87 1011.86 1011.96 1011.61 1011.42 1011.40 1011.65 1011.56 1011.64 1011.56 1011.51 1011.51 1010.95 1010.65 1010.05 1010.01 1010.10 1010.68 1011.67 1012.69 1013.52 1013.97 1013.16 1012.66 1012.92 1013.80 1014.42 1014.98 1015.66 1016.14 1016.42
1020.24 1019.66 1018.61 1018.47 1018.20 1017.71 1017.06 1015.95 1014.63 1013.34 1012.75 1012.39 1012.16 1011.88 1011.90 1011.71 1011.55 1011.59 1011.51 1011.63 1011.70 1011.72 1011.69 1011.79 1011.88 1011.83 1011.49 1010.71 1010.42 1010.23 1010.15 1010.58 1011.43 1012.82 1013.13 1013.09 1012.91 1013.01 1013.41 1013.85 1014.49 1015.01 1015.43 1015.75 1016.15
1020.45 1019.97 1019.30 1019.04 1018.55 1017.83 1017.22 1015.95 1014.98 1014.17 1013.03 1012.33 1012.22 1012.13 1012.16 1012.21 1011.97 1011.70 1011.83 1011.93 1011.88 1011.97 1012.11 1012.21 1012.31 1011.88 1011.26 1010.67 1010.35 1010.22 1010.23 1010.56 1011.17 1011.67 1012.40 1012.30 1012.66 1012.76 1013.06 1013.42 1013.67 1014.36 1015.43 1015.98 1016.44
1020.45 1020.25 1019.78 1019.18 1018.82 1018.23 1017.25 1016.24 1015.48 1014.65 1013.94 1012.83 1012.59 1012.19 1012.16 1012.31 1012.23 1012.26 1012.24 1012.30 1012.21 1012.36 1012.57 1012.87 1012.80 1012.37 1011.82 1011.09 1010.70 1010.50 1010.31 1010.53 1010.89 1011.20 1011.62 1011.93 1012.17 1012.15 1012.67 1013.51 1014.34 1014.90 1015.41 1015.95 1016.46
1020.01 1019.79 1019.83 1019.52 1019.08 1018.83 1017.54 1016.57 1015.81 1015.22 1013.91 1013.15 1012.84 1012.81 1012.59 1012.45 1012.32 1012.32 1012.26 1012.35 1012.49 1012.57 1012.95 1013.21 1013.23 1013.32 1012.92 1012.02 1011.42 1011.03 1010.28 1010.28 1010.49 1010.54 1010.99 1011.78 1011.87 1012.25 1012.99 1013.68 1014.09 1014.75 1015.38 1016.00 1016.69
Wind_Speed
12 13 12 13 12 14 14 11 8 11 12 14 16 17 18 19 21 2 7 13 10 11 11 7 6 4 1 3 3 4 3 3 5 6 8 4 6 1 2 7 2 3 8 8 16
14 13 12 12 13 13 14 12 10 12 13 15 17 18 20 21 7 10 15 13 17 17 6 3 3 7 2 4 3 5 4 8 6 3 6 7 6 9 6 5 3 2 3 18 15
13 14 13 13 14 12 11 11 12 13 14 14 16 18 20 17 6 7 7 7 17 12 11 5 1 2 3 4 4 6 6 6 4 6 4 5 6 3 10 2 7 10 12 19 10
12 13 13 13 13 12 11 11 12 13 14 14 15 16 18 4 7 4 15 22 22 15 8 6 4 3 5 6 5 5 4 2 4 5 4 2 2 5 4 7 9 12 20 16 14
13 13 13 14 13 14 13 14 14 14 14 14 14 15 6 3 13 10 22 18 12 4 9 7 6 5 5 6 4 6 5 5 4 3 3 1 1 4 4 1 8 9 13 15 14
12 13 14 15 16 17 16 17 18 17 16 15 14 13 3 9 5 8 10 9 6 5 5 7 7 8 5 5 8 8 7 5 3 3 5 4 2 0 2 1 9 13 11 9 10
11 13 14 15 16 17 18 19 20 20 18 17 13 8 8 20 4 10 14 9 7 5 5 7 13 3 1 3 5 5 5 3 4 3 2 3 6 4 4 3 8 7 6 7 8
10 12 13 14 16 18 20 21 20 19 18 16 11 6 11 7 7 12 9 8 10 11 12 9 8 4 3 5 3 6 6 5 3 5 2 6 3 4 5 7 4 4 7 8 7
7 8 11 14 15 19 22 24 25 21 16 13 4 4 13 10 7 11 8 7 4 5 6 9 7 6 4 5 2 1 6 4 3 1 4 3 4 5 1 3 6 7 6 8 7
5 7 8 12 15 18 24 28 16 4 5 5 4 4 7 6 6 11 4 8 5 3 4 6 5 4 4 6 13 4 6 3 7 7 2 4 6 5 5 5 4 5 7 8 7
5 5 6 9 13 16 14 7 7 5 2 9 6 6 16 7 11 5 5 5 1 1 2 4 4 7 5 8 7 5 6 6 2 5 5 8 4 7 7 5 7 6 7 6 9
5 6 7 8 9 11 3 4 3 7 13 12 18 16 20 6 9 13 5 5 4 5 4 2 5 6 6 4 8 4 5 4 1 4 3 6 9 10 5 5 6 8 6 4 4
5 7 9 10 10 4 1 4 6 6 4 11 5 5 6 8 6 8 6 2 2 3 5 4 3 3 4 5 7 6 5 5 6 3 2 6 7 6 4 3 4 4 5 6 2
8 8 9 14 2 2 1 4 7 1 3 7 3 6 1 2 5 4 4 5 6 3 5 3 4 4 4 6 8 11 8 8 7 7 6 3 5 4 3 5 4 3 3 5 2
7 8 9 9 2 1 3 7 5 4 5 11 5 3 2 4 7 5 2 4 2 3 4 5 2 5 6 11 7 8 7 13 8 5 5 1 4 7 3 3 4 2 2 0 2
8 7 7 1 2 5 5 5 4 5 4 6 5 8 9 4 3 3 2 3 3 2 2 2 1 2 3 2 3 5 7 7 5 3 0 7 7 6 6 8 4 2 0 3 5
9 9 4 2 3 2 5 5 6 4 5 7 7 6 6 5 6 2 0 3 1 5 5 2 4 2 2 4 5 3 6 3 1 1 6 4 4 8 2 5 7 7 4 6 5
11 9 6 6 2 4 3 6 3 4 2 1 6 9 5 5 5 6 2 2 3 3 2 3 7 2 2 4 8 6 6 7 7 5 5 6 6 5 2 4 7 6 6 6 7
10 3 3 4 7 1 5 4 5 4 4 2 3 6 6 4 3 5 2 1 3 2 1 6 6 2 1 2 4 5 3 4 6 2 3 3 3 5 4 5 5 7 7 6 7
3 4 4 3 6 3 5 3 4 4 0 1 1 0 3 5 6 7 4 4 3 2 3 1 2 1 1 2 3 2 3 3 3 4 4 3 3 5 8 8 6 7 8 6 6
3 4 5 7 3 5 3 6 6 7 4 4 4 3 6 4 3 4 4 3 3 7 4 1 1 5 1 2 5 1 0 4 4 4 5 2 7 6 13 12 11 9 8 8 7
2 2 3 2 3 1 2 5 7 5 3 5 3 7 5 1 3 3 2 1 5 0 2 1 4 1 5 4 1 3 4 4 6 3 1 5 7 4 8 12 11 8 8 7 7
1 3 3 4 1 2 5 6 4 4 3 4 4 2 2 3 3 4 2 2 1 3 1 2 3 3 6 6 3 2 3 4 5 4 3 5 6 4 5 8 7 10 8 8 8
2 2 4 4 2 3 2 5 5 4 5 5 4 3 3 3 3 4 3 2 3 2 3 3 1 4 6 5 3 2 3 3 5 4 3 5 3 2 5 9 7 7 9 11 10
1 4 2 2 4 2 2 3 4 6 4 3 3 4 3 3 5 3 1 4 1 2 1 2 2 2 4 3 2 2 3 6 5 4 6 4 7 7 9 12 15 11 8 8 7
2 1 4 2 2 4 2 3 3 5 3 6 3 3 2 4 5 4 0 2 4 2 1 1 3 2 3 3 2 3 3 3 3 3 2 4 5 2 4 6 6 9 11 8 7
1 2 4 4 3 2 4 1 5 2 8 2 3 3 4 3 2 4 3 1 4 3 4 2 2 2 4 4 4 6 6 6 4 4 7 7 8 3 2 6 8 9 8 8 9
Wind_Direction
345 346 332 339 342 340 333 312 324 331 331 330 332 333 331 327 321 292 253 227 216 270 312 308 312 319 196 246 209 127 94 193 202 163 242 203 139 138 95 121 67 175 154 173 173
344 343 342 338 339 337 334 351 344 333 330 330 331 333 332 329 306 266 242 252 269 270 279 264 297 347 224 208 211 132 155 211 215 213 267 181 140 146 125 132 30 61 24 142 158
344 337 338 333 332 329 334 339 335 326 322 326 330 332 330 328 306 253 182 19 356 267 244 254 242 292 235 179 201 179 195 202 265 298 216 167 137 134 124 222 195 173 151 154 162
338 338 329 332 327 324 322 322 319 318 318 323 326 327 325 311 302 261 234 342 333 309 164 199 185 221 207 191 209 160 193 128 297 337 348 39 121 84 173 213 169 172 163 158 172
338 331 327 332 329 326 316 312 308 309 312 317 321 329 349 327 252 288 306 316 320 299 190 200 187 200 200 187 186 185 181 187 270 38 44 183 113 180 145 248 130 133 160 169 175
335 333 334 334 332 323 315 311 309 308 310 312 318 332 300 282 244 274 284 301 302 337 252 181 210 219 260 215 166 196 172 182 191 83 38 51 10 52 118 160 120 154 171 172 173
342 339 340 335 330 325 316 310 304 300 299 301 307 306 265 251 232 295 294 280 275 270 284 226 235 334 328 274 196 156 111 137 176 144 97 305 20 358 4 82 129 149 157 176 195
344 340 341 332 329 323 314 307 300 294 293 292 292 293 255 256 259 283 269 259 246 240 225 250 222 254 230 292 102 138 99 144 219 146 14 116 222 279 357 117 131 191 189 189 204
347 350 343 337 329 321 313 305 294 285 278 275 256 193 267 295 261 247 191 230 270 273 218 244 151 205 261 189 112 212 162 148 135 242 146 117 207 246 312 97 128 157 209 218 197
348 347 352 340 330 327 320 310 295 276 261 196 236 290 257 281 297 292 301 186 209 318 305 171 161 197 203 175 198 161 117 136 154 189 102 198 217 231 259 253 193 181 199 213 213
339 340 355 345 329 330 336 347 9 350 82 233 207 239 285 278 288 272 277 109 37 344 225 190 143 208 196 191 154 147 152 173 226 179 120 195 209 236 238 224 247 241 196 210 207
328 326 336 326 317 330 344 26 354 274 304 271 247 247 258 270 312 312 140 136 151 210 190 36 203 213 183 185 155 169 164 176 71 164 123 179 241 245 238 217 218 204 174 191 126
313 317 314 303 309 65 162 274 301 322 281 294 235 225 242 144 232 276 138 199 218 193 154 166 210 191 160 179 213 226 173 176 169 135 328 114 299 242 230 153 125 73 116 96 144
305 306 309 312 23 317 301 304 325 32 339 280 285 275 234 67 279 243 159 116 8 249 150 256 275 208 192 233 195 220 188 188 141 126 198 184 251 284 209 129 93 80 63 82 72
293 297 308 331 181 129 254 326 315 69 20 310 317 259 235 148 264 327 303 61 302 305 143 226 291 194 216 228 174 237 182 166 183 134 122 166 98 262 105 145 184 186 92 92 238
291 289 311 338 294 249 306 297 77 43 313 339 338 330 336 329 292 269 129 67 174 18 342 83 222 177 262 88 145 178 89 50 52 84 53 209 152 274 192 192 180 216 37 352 331
290 294 268 294 260 295 288 44 28 66 337 324 336 337 323 307 309 146 276 43 37 7 5 356 343 284 304 86 31 103 83 58 343 271 215 155 149 236 205 169 163 168 89 26 32
295 290 262 230 269 309 4 51 3 279 281 297 331 326 326 349 317 333 80 43 34 62 159 85 328 200 198 194 185 191 162 160 173 185 223 109 216 257 354 127 123 111 107 69 55
316 291 265 259 191 245 67 50 228 272 280 29 323 23 314 335 319 352 22 71 93 112 44 195 214 262 152 224 121 188 164 173 102 74 90 199 331 353 73 95 117 122 105 92 78
349 329 263 154 147 60 78 223 265 306 30 29 339 74 293 307 348 12 2 347 353 138 167 236 340 8 250 143 336 143 184 77 9 151 224 283 238 229 193 181 169 157 143 127 113
49 352 277 139 90 41 145 230 269 303 215 209 220 262 255 296 309 295 1 333 356 338 347 321 86 295 358 133 183 57 74 45 99 138 164 186 262 214 191 179 178 183 166 155 146
59 9 309 34 34 39 209 209 310 306 280 278 230 221 226 218 274 285 322 188 295 261 331 296 129 338 253 298 267 208 191 129 124 235 113 146 271 353 181 173 166 172 169 158 152
28 255 331 68 184 287 292 291 257 309 310 298 274 231 257 253 297 222 297 42 35 356 339 329 2 21 346 351 345 235 202 124 111 87 199 132 261 10 141 127 166 163 164 162 167
65 341 326 47 253 197 283 275 311 267 251 240 276 297 320 305 225 284 317 338 350 20 23 22 25 169 205 218 168 249 202 147 115 115 184 221 233 292 149 155 174 176 167 173 173
74 253 196 260 287 268 276 263 313 335 249 199 285 234 252 299 320 316 341 318 309 347 50 86 245 240 247 252 211 233 216 180 171 183 160 236 186 211 200 183 191 176 173 176 173
157 11 350 285 318 297 228 287 40 320 277 300 208 329 267 223 217 260 316 228 255 46 285 145 260 285 274 309 1 300 283 212 206 196 167 187 231 241 183 96 145 178 187 185 159
292 315 117 276 341 14 256 119 305 12 301 280 298 311 303 300 259 252 219 230 258 196 213 187 154 83 267 335 4 312 233 194 201 193 160 191 224 159 72 185 187 191 183 164 146